Wind_Speed
5 6 7 7 7 7 7 7 7 7 8 8 9 10 10 11 11 11 10 10 9 10 9 9 9 9 9 10 10 11 11 12 12 12 12 13 13 13 13 14 14 14
6 7 7 7 8 7 7 8 8 8 8 8 8 9 10 10 11 11 11 11 10 11 11 11 10 10 10 11 11 12 13 13 13 13 13 14 14 14 14 14 15 15
8 7 8 8 9 9 10 10 9 8 8 8 9 9 9 10 11 11 12 11 11 11 11 12 12 11 11 11 12 12 13 14 14 15 15 15 15 15 15 15 15 15
10 10 9 10 11 12 12 12 11 9 8 9 10 10 10 10 11 11 12 12 12 12 12 12 12 12 12 12 12 12 13 13 14 15 16 16 16 16 16 16 16 16
14 12 12 11 12 13 14 14 13 12 11 11 12 12 11 12 12 13 13 13 13 13 13 13 13 13 13 13 13 13 13 13 14 14 15 15 16 16 16 16 16 16
17 15 14 14 14 15 15 15 15 15 15 14 15 15 14 14 15 15 15 14 14 14 14 14 14 14 14 14 15 15 15 15 14 14 14 15 15 15 16 16 16 16
19 19 18 17 17 16 16 16 17 18 18 18 19 19 18 18 18 18 18 17 15 15 15 15 15 15 15 15 16 16 16 16 16 16 15 15 16 16 16 16 16 17
22 22 21 21 20 18 17 16 17 18 19 21 22 23 23 23 22 22 22 20 18 17 17 17 17 17 17 17 17 17 17 17 18 18 17 17 17 17 17 18 18 19
26 26 25 24 24 21 19 18 18 19 20 22 23 25 27 27 26 26 26 25 23 21 20 19 18 18 18 18 19 19 19 19 18 19 19 19 19 19 20 20 20 21
30 29 27 27 27 25 23 21 21 21 22 22 24 26 28 30 30 30 30 29 27 26 24 23 22 20 20 20 20 21 21 21 20 20 20 20 21 21 22 23 23 23
30 29 29 29 29 28 27 25 23 24 24 25 26 28 30 31 32 32 32 32 31 30 29 28 27 25 23 22 22 23 23 23 23 22 22 22 22 23 24 24 25 26
30 29 30 30 30 30 29 29 28 27 29 30 30 32 33 32 33 33 32 32 33 33 32 32 31 29 27 26 26 26 25 25 25 25 25 25 24 25 25 26 27 28
32 30 30 31 31 31 31 32 32 32 33 34 34 36 36 34 34 35 34 34 34 34 35 35 34 33 31 30 30 30 30 29 28 28 28 28 28 27 27 28 28 29
33 33 32 33 33 33 34 35 35 36 38 38 38 39 39 37 37 37 37 37 35 35 36 36 35 35 34 34 34 34 34 34 33 31 30 30 30 30 30 30 30 30
35 36 36 36 36 37 37 37 38 39 40 41 42 41 39 40 40 38 38 41 41 40 39 36 35 35 36 37 38 38 38 38 37 36 35 34 33 33 33 33 33 33
38 38 38 38 39 39 39 39 40 41 42 42 43 42 39 39 39 37 36 38 38 38 36 35 36 36 37 39 41 41 41 41 39 39 39 39 38 36 36 36 37 36
39 40 40 40 40 40 41 42 42 43 44 44 44 44 42 41 40 38 36 35 32 30 30 32 34 36 38 40 42 43 43 42 40 40 42 42 41 40 39 39 40 40
40 40 40 41 41 41 42 43 44 45 45 44 43 42 42 42 41 39 37 36 34 32 30 31 33 35 39 41 42 44 45 43 41 42 43 44 44 44 43 43 43 43
40 41 41 41 42 42 43 43 44 44 44 43 42 40 40 40 40 39 38 37 36 34 32 32 34 37 40 42 43 45 46 45 44 43 45 46 47 46 46 46 45 45
38 39 40 41 42 42 43 44 45 45 44 43 43 42 41 40 38 38 38 39 38 36 34 34 36 38 40 41 43 45 46 47 46 46 47 48 48 48 48 48 48 47
37 38 39 40 40 41 42 42 43 44 44 44 45 44 43 42 40 39 39 40 39 39 38 37 38 39 39 39 42 44 46 47 48 49 49 50 50 49 49 50 51 50
37 39 40 41 41 41 41 42 42 42 43 44 44 45 45 44 42 40 40 40 40 40 40 39 39 38 38 39 41 44 45 47 48 50 51 51 51 51 51 51 52 52
38 39 40 41 42 42 43 43 43 43 43 43 43 43 43 42 40 39 38 38 38 39 39 39 39 38 38 40 42 43 45 46 47 49 50 51 51 51 52 52 53 53
39 40 40 41 41 42 42 42 42 42 42 42 41 40 39 38 37 35 34 34 37 39 39 40 39 38 39 40 42 44 45 45 46 49 51 51 51 52 52 53 53 53
41 41 42 41 41 41 41 41 41 40 39 38 37 36 36 35 33 32 32 35 39 41 41 40 39 39 40 41 43 44 43 44 46 50 51 52 52 52 53 53 54 53
40 40 41 40 40 39 39 39 39 39 37 36 34 33 33 32 31 31 34 37 41 41 41 40 39 40 41 42 43 43 42 44 48 50 51 51 52 52 52 53 52 52
Wind_Direction
281 293 296 297 294 293 296 298 307 318 331 341 347 353 358 356 352 351 348 341 332 326 319 313 309 303 298 295 292 289 284 279 274 270 268 266 265 264 263 264 264 266
261 275 284 291 293 290 286 286 294 304 314 326 333 340 347 349 346 344 344 341 334 327 321 317 315 312 309 306 303 301 298 296 292 287 283 280 276 273 269 268 267 268
246 260 273 281 284 282 276 277 284 291 299 308 315 324 334 338 339 338 338 336 332 325 318 314 313 312 310 307 304 302 300 300 298 295 293 290 287 284 282 279 277 276
240 249 260 269 275 276 275 275 278 281 286 292 295 303 314 322 326 329 331 332 331 327 320 314 311 309 308 306 304 302 301 299 298 296 295 293 291 290 288 287 286 285
241 245 251 260 267 271 274 275 277 277 277 279 282 286 292 301 309 314 318 323 326 327 324 319 313 307 304 304 303 302 302 301 300 297 295 294 292 291 290 290 289 288
241 242 246 254 261 264 269 272 273 273 272 273 274 276 279 283 292 298 303 310 316 322 324 323 320 314 308 304 301 301 301 302 302 301 299 296 294 292 290 289 288 287
239 240 242 247 253 257 261 265 268 269 269 270 271 274 276 277 280 285 289 296 303 311 315 318 319 318 315 311 307 305 304 302 301 301 301 300 298 295 291 288 285 284
240 241 240 242 245 248 252 257 262 265 266 267 269 272 275 276 277 278 281 286 292 298 303 307 311 314 314 314 313 312 309 306 303 300 299 298 296 293 290 288 286 285
236 239 241 243 245 244 245 248 254 259 262 264 267 269 271 274 276 277 278 280 284 289 293 296 300 305 308 310 311 312 310 308 306 302 299 296 293 291 289 287 285 284
238 239 240 243 244 244 244 245 248 252 256 259 262 264 267 269 271 274 276 278 280 283 286 289 292 296 300 304 306 307 307 306 306 303 299 296 293 291 289 287 285 284
247 244 243 242 242 243 244 244 246 251 254 255 256 258 260 263 265 268 272 276 279 280 280 283 286 290 294 297 300 302 302 302 302 301 298 295 292 290 288 287 285 284
255 251 249 247 245 247 246 242 241 246 249 250 252 254 253 255 259 263 267 271 275 277 277 278 281 285 290 293 295 296 296 297 297 298 297 295 293 290 288 287 285 284
254 252 253 252 250 251 250 245 242 244 248 248 250 253 253 253 254 257 260 263 266 271 273 275 277 282 286 289 291 292 293 293 293 294 295 295 294 292 290 288 286 285
254 252 255 257 256 254 251 249 248 250 252 250 249 251 254 255 253 253 254 257 259 262 266 270 274 279 282 284 286 288 290 291 292 292 293 293 293 292 291 290 288 287
258 256 257 258 259 257 253 250 250 253 255 254 254 255 257 258 259 259 259 260 260 259 262 267 272 276 279 280 282 285 287 289 291 292 292 292 291 291 290 290 290 289
258 258 258 257 257 257 256 253 252 252 254 256 259 263 264 265 269 272 271 273 271 267 268 275 278 278 278 279 281 283 285 287 289 292 292 291 290 290 290 290 290 290
254 254 255 254 254 254 255 255 255 255 256 257 260 263 265 267 272 275 276 279 281 277 275 279 279 278 278 279 281 282 283 284 286 290 291 290 289 288 289 289 289 288
256 255 254 253 253 252 252 254 255 257 259 261 262 263 264 265 269 273 275 277 281 281 279 277 276 275 275 277 279 281 281 280 282 287 291 291 289 288 288 289 289 288
261 261 260 258 258 257 255 255 255 257 259 262 265 266 266 266 269 272 274 277 280 281 280 277 275 274 274 276 278 279 279 276 277 284 290 291 289 289 289 290 290 289
264 263 263 262 262 261 261 260 259 259 260 262 265 268 269 270 271 272 274 277 279 281 279 275 272 273 276 277 278 277 277 274 273 279 287 289 289 288 289 290 291 290
264 263 263 263 262 262 262 262 262 262 263 263 265 267 269 270 271 271 273 274 276 277 276 273 271 272 274 277 277 276 276 273 272 277 284 287 287 288 290 291 291 290
262 261 261 262 261 261 261 261 261 262 262 263 264 265 267 268 269 270 271 272 274 274 273 271 271 271 273 275 274 274 274 273 273 277 283 285 287 289 291 291 290 290
263 261 261 261 261 261 260 260 260 261 262 263 263 264 266 267 267 267 268 269 271 271 270 270 270 270 271 272 272 272 273 274 276 280 283 285 287 289 290 289 289 289
266 264 262 261 261 261 261 261 261 261 262 264 264 265 265 265 265 265 264 264 263 262 263 266 267 268 268 270 271 272 273 275 279 282 282 284 286 288 289 289 289 289
270 267 265 264 263 263 263 263 263 262 263 264 265 264 264 263 262 260 258 257 258 256 256 259 264 265 266 267 269 270 272 276 279 281 282 284 286 287 288 289 289 289
272 270 268 267 265 265 266 266 265 263 262 264 264 262 260 259 257 253 252 252 253 253 252 255 260 262 263 265 267 267 271 275 278 280 282 285 286 287 288 288 289 289
Height
3121 3121 3121 3121 3121 3121 3121 3120 3120 3120 3120 3120 3120 3119 3119 3119 3118 3118 3118 3118 3118 3117 3118 3118 3119 3119 3119 3119 3119 3119 3119 3119 3120 3120 3120 3121 3121 3121 3122 3122 3122 3122
3120 3120 3120 3120 3120 3120 3120 3120 3120 3120 3120 3119 3119 3119 3119 3118 3118 3117 3117 3117 3116 3116 3116 3116 3117 3117 3118 3118 3118 3118 3117 3117 3118 3118 3118 3118 3119 3119 3119 3120 3120 3120
3119 3119 3119 3119 3119 3119 3119 3119 3119 3119 3119 3119 3119 3118 3118 3118 3117 3117 3116 3116 3116 3115 3115 3115 3115 3115 3116 3116 3116 3116 3116 3116 3116 3116 3116 3117 3117 3117 3117 3117 3117 3118
3117 3118 3118 3118 3118 3118 3118 3118 3118 3118 3118 3118 3118 3118 3117 3117 3116 3116 3115 3115 3115 3114 3114 3114 3114 3114 3114 3114 3115 3115 3115 3115 3115 3115 3115 3115 3115 3115 3115 3115 3115 3115
3115 3115 3116 3116 3116 3116 3116 3117 3117 3117 3117 3117 3117 3117 3116 3116 3115 3115 3114 3114 3114 3114 3113 3113 3113 3113 3113 3113 3113 3113 3113 3113 3114 3114 3114 3114 3114 3114 3114 3114 3114 3113
3113 3113 3114 3114 3114 3114 3114 3114 3115 3115 3115 3115 3115 3115 3115 3114 3114 3113 3113 3113 3113 3113 3112 3112 3112 3112 3112 3111 3111 3111 3111 3111 3112 3112 3112 3112 3112 3112 3112 3112 3112 3112
3110 3110 3111 3111 3111 3112 3112 3112 3112 3112 3113 3113 3113 3113 3113 3113 3112 3112 3112 3111 3111 3111 3111 3111 3111 3111 3110 3110 3110 3110 3110 3110 3110 3110 3110 3110 3110 3110 3110 3110 3110 3110
3107 3107 3108 3108 3108 3109 3109 3110 3110 3110 3110 3110 3110 3110 3110 3110 3110 3110 3110 3110 3110 3110 3109 3109 3109 3109 3109 3109 3109 3109 3109 3109 3108 3108 3108 3108 3108 3108 3108 3108 3108 3108
3102 3103 3104 3105 3106 3106 3106 3107 3107 3107 3107 3107 3107 3107 3107 3107 3107 3107 3107 3108 3108 3108 3108 3107 3107 3107 3107 3107 3107 3107 3107 3107 3107 3106 3106 3106 3106 3106 3106 3106 3106 3106
3098 3099 3100 3101 3102 3103 3103 3104 3104 3104 3104 3104 3104 3104 3104 3104 3104 3104 3104 3105 3105 3105 3105 3105 3105 3105 3105 3105 3105 3105 3105 3105 3104 3104 3104 3103 3103 3103 3102 3102 3102 3102
3095 3095 3096 3097 3098 3099 3099 3100 3101 3101 3101 3100 3100 3100 3100 3100 3100 3100 3101 3101 3102 3103 3102 3102 3102 3102 3102 3103 3103 3103 3103 3102 3102 3102 3101 3101 3100 3100 3100 3099 3099 3099
3092 3093 3093 3093 3094 3095 3095 3096 3096 3096 3096 3096 3096 3095 3095 3096 3096 3096 3097 3098 3098 3099 3099 3099 3099 3099 3099 3100 3100 3099 3099 3099 3099 3099 3098 3098 3098 3097 3097 3097 3096 3096
3089 3089 3089 3090 3090 3091 3091 3091 3091 3091 3091 3091 3091 3090 3090 3092 3093 3092 3093 3093 3094 3094 3095 3095 3095 3096 3096 3096 3096 3096 3095 3095 3095 3095 3094 3094 3094 3094 3093 3093 3093 3092
3085 3085 3085 3086 3086 3087 3087 3087 3087 3087 3086 3086 3086 3086 3087 3088 3088 3088 3088 3089 3090 3090 3090 3091 3091 3092 3093 3092 3092 3092 3091 3091 3091 3090 3090 3090 3090 3089 3089 3089 3088 3088
3080 3081 3081 3082 3082 3082 3083 3083 3083 3083 3083 3083 3082 3083 3085 3084 3083 3084 3085 3085 3085 3086 3086 3087 3088 3089 3089 3088 3088 3088 3087 3087 3087 3086 3086 3086 3085 3085 3084 3084 3083 3083
3075 3076 3076 3077 3077 3077 3078 3079 3079 3079 3079 3079 3079 3080 3081 3080 3080 3081 3082 3082 3082 3082 3083 3085 3085 3085 3084 3084 3083 3083 3083 3083 3082 3082 3081 3081 3081 3080 3080 3079 3079 3078
3069 3070 3071 3071 3072 3072 3072 3073 3073 3073 3073 3074 3074 3075 3076 3076 3076 3077 3077 3077 3078 3078 3080 3080 3080 3080 3080 3079 3078 3078 3078 3078 3078 3077 3076 3076 3075 3075 3075 3074 3074 3073
3064 3064 3065 3066 3066 3066 3067 3067 3068 3068 3068 3068 3069 3069 3070 3070 3071 3072 3072 3072 3073 3073 3075 3075 3075 3075 3074 3073 3073 3073 3073 3073 3073 3072 3071 3070 3070 3070 3069 3069 3068 3068
3059 3059 3060 3060 3061 3061 3061 3062 3062 3063 3063 3063 3063 3063 3064 3065 3066 3066 3067 3067 3068 3068 3069 3070 3070 3069 3068 3068 3068 3068 3068 3068 3068 3067 3066 3065 3064 3064 3063 3063 3062 3062
3054 3054 3054 3055 3055 3055 3055 3056 3057 3057 3058 3058 3058 3058 3058 3060 3061 3062 3062 3062 3062 3063 3064 3064 3063 3063 3063 3063 3063 3063 3063 3062 3062 3062 3061 3060 3059 3058 3057 3057 3056 3056
3049 3049 3049 3049 3049 3049 3050 3050 3051 3051 3052 3053 3053 3053 3053 3054 3056 3056 3057 3057 3057 3058 3058 3057 3057 3057 3058 3058 3058 3057 3057 3057 3057 3056 3055 3055 3054 3053 3052 3051 3050 3049
3043 3043 3043 3043 3044 3044 3044 3045 3045 3046 3046 3047 3048 3048 3048 3049 3051 3052 3052 3052 3052 3052 3052 3051 3052 3052 3053 3053 3052 3052 3052 3052 3052 3051 3050 3050 3049 3048 3047 3045 3044 3043
3037 3037 3037 3038 3038 3038 3039 3039 3040 3040 3041 3041 3042 3043 3043 3044 3046 3047 3047 3047 3047 3046 3046 3046 3047 3047 3048 3047 3047 3047 3047 3047 3047 3046 3045 3044 3043 3042 3041 3040 3039 3038
3031 3031 3031 3031 3032 3032 3033 3034 3034 3034 3035 3036 3037 3037 3038 3039 3040 3041 3041 3041 3041 3041 3041 3042 3042 3042 3042 3042 3042 3042 3042 3042 3042 3041 3040 3039 3037 3036 3035 3034 3033 3032
3024 3024 3024 3025 3025 3026 3027 3028 3028 3029 3029 3030 3031 3031 3032 3033 3035 3035 3035 3035 3035 3036 3036 3037 3037 3037 3037 3037 3037 3037 3037 3037 3037 3036 3034 3033 3031 3030 3029 3027 3026 3025
3017 3017 3017 3018 3019 3020 3021 3022 3022 3023 3024 3025 3025 3026 3027 3029 3029 3029 3030 3030 3030 3031 3032 3032 3032 3032 3033 3032 3032 3032 3033 3033 3032 3030 3029 3027 3025 3024 3022 3021 3020 3018